Time,TemperatureF,DewpointF,PressureIn,WindDirection,WindDirectionDegrees,WindSpeedMPH,WindSpeedGustMPH,Humidity,HourlyPrecipIn,Conditions,Clouds,dailyrainin,SoftwareType,DateUTC
2013-08-21 00:00:00,75.7,74.3,29.74,SE,135,0.0,0.0,94,0.00,,,0.00,fowsr,2013-08-21 04:00:00,
2013-08-21 00:05:00,75.7,74.3,29.73,SE,135,0.0,0.0,94,0.00,,,0.00,fowsr,2013-08-21 04:05:00,
2013-08-21 00:10:00,75.6,74.1,29.73,East,90,0.0,0.0,94,0.00,,,0.00,fowsr,2013-08-21 04:10:00,
2013-08-21 00:15:00,75.6,74.1,29.74,East,90,0.0,0.7,94,0.00,,,0.00,fowsr,2013-08-21 04:15:00,
2013-08-21 00:20:00,75.4,73.9,29.74,SE,135,0.0,1.6,94,0.00,,,0.00,fowsr,2013-08-21 04:20:00,
2013-08-21 00:25:00,75.4,73.9,29.73,SE,135,0.0,0.0,94,0.00,,,0.00,fowsr,2013-08-21 04:25:00,
2013-08-21 00:30:00,75.4,73.9,29.73,SE,135,0.0,0.7,94,0.00,,,0.00,fowsr,2013-08-21 04:30:00,
2013-08-21 00:35:00,75.4,73.9,29.73,SE,135,0.0,1.6,94,0.00,,,0.00,fowsr,2013-08-21 04:35:00,
2013-08-21 00:40:00,75.4,73.9,29.73,SE,135,0.0,0.0,94,0.00,,,0.00,fowsr,2013-08-21 04:40:00,
2013-08-21 00:45:00,75.2,73.7,29.73,SE,135,0.0,0.0,94,0.00,,,0.00,fowsr,2013-08-21 04:45:00,
2013-08-21 00:50:00,75.2,73.7,29.74,SE,135,0.0,0.7,94,0.00,,,0.00,fowsr,2013-08-21 04:50:00,
2013-08-21 00:55:00,75.2,73.7,29.74,SE,135,0.0,0.0,94,0.00,,,0.00,fowsr,2013-08-21 04:55:00,
2013-08-21 01:00:00,75.0,74.1,29.74,SE,135,0.0,0.0,96,0.00,,,0.00,fowsr,2013-08-21 05:00:00,
2013-08-21 01:05:00,75.0,74.1,29.74,SE,135,0.0,0.0,96,0.00,,,0.00,fowsr,2013-08-21 05:05:00,
2013-08-21 01:10:00,74.8,73.9,29.73,SE,135,0.0,1.6,96,0.00,,,0.00,fowsr,2013-08-21 05:10:00,
2013-08-21 01:15:00,74.7,73.7,29.74,SE,135,0.0,0.0,96,0.00,,,0.00,fowsr,2013-08-21 05:15:00,
2013-08-21 01:20:00,74.7,73.7,29.73,SE,135,0.0,0.0,96,0.00,,,0.00,fowsr,2013-08-21 05:20:00,
2013-08-21 01:25:00,74.7,73.7,29.73,SE,135,0.0,0.0,96,0.00,,,0.00,fowsr,2013-08-21 05:25:00,
2013-08-21 01:30:00,74.7,73.7,29.73,SE,135,0.0,0.0,96,0.00,,,0.00,fowsr,2013-08-21 05:30:00,
2013-08-21 01:35:00,74.5,73.5,29.73,SE,135,0.0,0.0,96,0.00,,,0.00,fowsr,2013-08-21 05:35:00,
2013-08-21 01:40:00,74.5,73.5,29.73,SE,135,0.0,0.0,96,0.00,,,0.00,fowsr,2013-08-21 05:40:00,
2013-08-21 01:45:00,74.5,73.5,29.73,SE,135,0.0,0.0,96,0.00,,,0.00,fowsr,2013-08-21 05:45:00,
2013-08-21 01:50:00,74.5,73.5,29.73,SE,135,0.0,0.0,96,0.00,,,0.00,fowsr,2013-08-21 05:50:00,
2013-08-21 01:55:00,74.3,73.3,29.73,SE,135,0.0,0.0,96,0.00,,,0.00,fowsr,2013-08-21 05:55:00,
2013-08-21 02:00:00,74.3,73.3,29.73,SE,135,0.0,0.0,96,0.00,,,0.00,fowsr,2013-08-21 06:00:00,
2013-08-21 02:05:00,74.3,73.3,29.73,SE,135,0.0,0.0,96,0.00,,,0.00,fowsr,2013-08-21 06:05:00,
2013-08-21 02:10:00,74.1,73.2,29.72,SE,135,0.0,0.0,96,0.00,,,0.00,fowsr,2013-08-21 06:10:00,
2013-08-21 02:15:00,74.1,73.2,29.72,SE,135,0.0,0.0,96,0.00,,,0.00,fowsr,2013-08-21 06:15:00,
2013-08-21 02:20:00,74.1,73.2,29.72,SE,135,0.0,0.0,96,0.00,,,0.00,fowsr,2013-08-21 06:20:00,
2013-08-21 02:25:00,74.1,73.2,29.72,SE,135,0.0,0.0,96,0.00,,,0.00,fowsr,2013-08-21 06:25:00,
2013-08-21 02:30:00,74.1,73.2,29.72,SE,135,0.0,0.0,96,0.00,,,0.00,fowsr,2013-08-21 06:30:00,
2013-08-21 02:35:00,74.1,73.2,29.72,SE,135,0.0,0.0,96,0.00,,,0.00,fowsr,2013-08-21 06:35:00,
2013-08-21 02:40:00,74.1,73.2,29.71,SE,135,0.0,0.0,96,0.00,,,0.00,fowsr,2013-08-21 06:40:00,
2013-08-21 02:45:00,74.1,73.4,29.71,SE,135,0.0,0.0,97,0.00,,,0.00,fowsr,2013-08-21 06:45:00,
2013-08-21 02:50:00,73.9,73.2,29.72,SE,135,0.0,0.0,97,0.00,,,0.00,fowsr,2013-08-21 06:50:00,
2013-08-21 02:55:00,73.9,73.2,29.71,SE,135,0.0,0.0,97,0.00,,,0.00,fowsr,2013-08-21 06:55:00,
2013-08-21 03:00:00,73.9,73.2,29.72,SE,135,0.0,0.0,97,0.00,,,0.00,fowsr,2013-08-21 07:00:00,
2013-08-21 03:05:00,73.9,73.2,29.72,SE,135,0.0,0.0,97,0.00,,,0.00,fowsr,2013-08-21 07:05:00,
2013-08-21 03:10:00,73.8,73.0,29.72,SE,135,0.0,0.0,97,0.00,,,0.00,fowsr,2013-08-21 07:10:00,
2013-08-21 03:15:00,73.8,73.0,29.72,SE,135,0.0,0.0,97,0.00,,,0.00,fowsr,2013-08-21 07:15:00,
2013-08-21 03:20:00,73.8,73.0,29.71,SE,135,0.0,0.0,97,0.00,,,0.00,fowsr,2013-08-21 07:20:00,
2013-08-21 03:25:00,73.8,73.0,29.72,SE,135,0.0,0.0,97,0.00,,,0.00,fowsr,2013-08-21 07:25:00,
2013-08-21 03:30:00,73.8,73.0,29.71,SE,135,0.0,0.0,97,0.00,,,0.00,fowsr,2013-08-21 07:30:00,
2013-08-21 03:35:00,73.8,73.0,29.71,SE,135,0.0,0.0,97,0.00,,,0.00,fowsr,2013-08-21 07:35:00,
2013-08-21 03:40:00,73.8,73.0,29.72,SE,135,0.0,0.0,97,0.00,,,0.00,fowsr,2013-08-21 07:40:00,
2013-08-21 03:45:00,73.6,72.9,29.71,SE,135,0.0,0.0,97,0.00,,,0.00,fowsr,2013-08-21 07:45:00,
2013-08-21 03:50:00,73.6,72.9,29.71,SE,135,0.0,0.0,97,0.00,,,0.00,fowsr,2013-08-21 07:50:00,
2013-08-21 03:55:00,73.6,72.9,29.71,SE,135,0.0,0.0,97,0.00,,,0.00,fowsr,2013-08-21 07:55:00,
2013-08-21 04:00:00,73.6,72.9,29.71,SE,135,0.0,0.0,97,0.00,,,0.00,fowsr,2013-08-21 08:00:00,
2013-08-21 04:05:00,73.4,72.9,29.71,SE,135,0.0,0.0,98,0.00,,,0.00,fowsr,2013-08-21 08:05:00,
2013-08-21 04:10:00,73.4,72.9,29.71,SE,135,0.0,0.0,98,0.00,,,0.00,fowsr,2013-08-21 08:10:00,
2013-08-21 04:15:00,73.4,72.9,29.71,SE,135,0.0,0.0,98,0.00,,,0.00,fowsr,2013-08-21 08:15:00,
2013-08-21 04:20:00,73.4,72.9,29.71,SE,135,0.0,0.0,98,0.00,,,0.00,fowsr,2013-08-21 08:20:00,
2013-08-21 04:25:00,73.2,72.5,29.71,SE,135,0.0,0.0,97,0.00,,,0.00,fowsr,2013-08-21 08:25:00,
2013-08-21 04:30:00,73.2,72.5,29.71,SE,135,0.0,0.0,97,0.00,,,0.00,fowsr,2013-08-21 08:30:00,
2013-08-21 04:35:00,73.2,72.5,29.71,SE,135,0.0,0.0,97,0.00,,,0.00,fowsr,2013-08-21 08:35:00,
2013-08-21 04:40:00,73.2,72.5,29.71,SE,135,0.0,0.0,97,0.00,,,0.00,fowsr,2013-08-21 08:40:00,
2013-08-21 04:45:00,73.2,72.5,29.71,SE,135,0.0,0.0,97,0.00,,,0.00,fowsr,2013-08-21 08:45:00,
2013-08-21 04:50:00,73.2,72.5,29.71,SE,135,0.0,0.0,97,0.00,,,0.00,fowsr,2013-08-21 08:50:00,
2013-08-21 04:55:00,73.2,72.5,29.71,SE,135,0.0,0.0,97,0.00,,,0.00,fowsr,2013-08-21 08:55:00,
2013-08-21 05:00:00,73.2,72.5,29.71,SE,135,0.0,0.0,97,0.00,,,0.00,fowsr,2013-08-21 09:00:00,
2013-08-21 05:05:00,73.2,72.5,29.72,SE,135,0.0,0.0,97,0.00,,,0.00,fowsr,2013-08-21 09:05:00,
2013-08-21 05:10:00,73.2,72.5,29.71,SE,135,0.0,0.0,97,0.00,,,0.00,fowsr,2013-08-21 09:10:00,
2013-08-21 05:15:00,73.2,72.5,29.72,SE,135,0.0,0.0,97,0.00,,,0.00,fowsr,2013-08-21 09:15:00,
2013-08-21 05:20:00,73.2,72.5,29.72,SE,135,0.0,0.0,97,0.00,,,0.00,fowsr,2013-08-21 09:20:00,
2013-08-21 05:25:00,73.2,72.5,29.72,SE,135,0.0,0.0,97,0.00,,,0.00,fowsr,2013-08-21 09:25:00,
2013-08-21 05:30:00,73.2,72.5,29.72,SE,135,0.0,0.0,97,0.00,,,0.00,fowsr,2013-08-21 09:30:00,
2013-08-21 05:35:00,73.2,72.5,29.72,SE,135,0.0,0.0,97,0.00,,,0.00,fowsr,2013-08-21 09:35:00,
2013-08-21 05:40:00,73.2,72.5,29.72,SE,135,0.0,0.0,97,0.00,,,0.00,fowsr,2013-08-21 09:40:00,
2013-08-21 05:45:00,73.2,72.5,29.72,SE,135,0.0,0.0,97,0.00,,,0.00,fowsr,2013-08-21 09:45:00,
2013-08-21 05:50:00,73.2,72.5,29.72,SE,135,0.0,0.0,97,0.00,,,0.00,fowsr,2013-08-21 09:50:00,
2013-08-21 05:55:00,73.2,72.5,29.72,SE,135,0.0,0.0,97,0.00,,,0.00,fowsr,2013-08-21 09:55:00,
2013-08-21 06:00:00,73.2,72.5,29.72,SE,135,0.0,0.0,97,0.00,,,0.00,fowsr,2013-08-21 10:00:00,
2013-08-21 06:05:00,73.2,72.5,29.72,SE,135,0.0,0.0,97,0.00,,,0.00,fowsr,2013-08-21 10:05:00,
2013-08-21 06:10:00,73.2,72.5,29.72,SE,135,0.0,0.0,97,0.00,,,0.00,fowsr,2013-08-21 10:10:00,
2013-08-21 06:15:00,73.4,73.2,29.72,SE,135,0.0,0.0,99,0.00,,,0.00,fowsr,2013-08-21 10:15:00,
2013-08-21 06:20:00,73.4,73.2,29.72,SE,135,0.0,0.0,99,0.00,,,0.00,fowsr,2013-08-21 10:20:00,
2013-08-21 06:25:00,73.4,73.2,29.72,SE,135,0.0,0.0,99,0.00,,,0.00,fowsr,2013-08-21 10:25:00,
2013-08-21 06:30:00,73.4,73.2,29.72,SE,135,0.0,0.0,99,0.00,,,0.00,fowsr,2013-08-21 10:30:00,
2013-08-21 06:35:00,73.2,72.5,29.72,SE,135,0.0,0.0,97,0.00,,,0.00,fowsr,2013-08-21 10:35:00,
2013-08-21 06:40:00,73.2,72.5,29.73,SE,135,0.0,0.0,97,0.00,,,0.00,fowsr,2013-08-21 10:40:00,
2013-08-21 06:45:00,73.2,72.5,29.73,SE,135,0.0,0.0,97,0.00,,,0.00,fowsr,2013-08-21 10:45:00,
2013-08-21 06:50:00,73.2,72.5,29.73,SE,135,0.0,0.0,97,0.00,,,0.00,fowsr,2013-08-21 10:50:00,
2013-08-21 06:55:00,73.2,72.5,29.73,SE,135,0.0,0.0,97,0.00,,,0.00,fowsr,2013-08-21 10:55:00,
2013-08-21 07:00:00,73.2,72.5,29.74,SE,135,0.0,0.0,97,0.00,,,0.00,fowsr,2013-08-21 11:00:00,
2013-08-21 07:05:00,73.2,72.5,29.74,SE,135,0.0,0.0,97,0.00,,,0.00,fowsr,2013-08-21 11:05:00,
2013-08-21 07:10:00,73.2,72.5,29.74,SE,135,0.0,0.0,97,0.00,,,0.00,fowsr,2013-08-21 11:10:00,
2013-08-21 07:15:00,73.2,72.5,29.75,SE,135,0.0,0.0,97,0.00,,,0.00,fowsr,2013-08-21 11:15:00,
2013-08-21 07:20:00,73.2,72.5,29.75,SE,135,0.0,0.0,97,0.00,,,0.00,fowsr,2013-08-21 11:20:00,
2013-08-21 07:25:00,73.2,72.5,29.75,SE,135,0.0,0.0,97,0.00,,,0.00,fowsr,2013-08-21 11:25:00,
2013-08-21 07:30:00,73.2,72.5,29.75,SE,135,0.0,0.0,97,0.00,,,0.00,fowsr,2013-08-21 11:30:00,
2013-08-21 07:35:00,73.2,72.5,29.75,SE,135,0.0,0.0,97,0.00,,,0.00,fowsr,2013-08-21 11:35:00,
2013-08-21 07:40:00,73.2,72.5,29.75,SE,135,0.0,0.0,97,0.00,,,0.00,fowsr,2013-08-21 11:40:00,
2013-08-21 07:45:00,73.2,72.5,29.75,SE,135,0.0,0.0,97,0.00,,,0.00,fowsr,2013-08-21 11:45:00,
2013-08-21 07:50:00,73.2,72.5,29.75,SE,135,0.0,0.0,97,0.00,,,0.00,fowsr,2013-08-21 11:50:00,
2013-08-21 07:55:00,73.2,72.5,29.75,SE,135,0.0,0.0,97,0.00,,,0.00,fowsr,2013-08-21 11:55:00,
2013-08-21 08:00:00,73.2,72.5,29.75,SE,135,0.0,0.0,97,0.00,,,0.00,fowsr,2013-08-21 12:00:00,
2013-08-21 08:05:00,73.2,72.5,29.75,SE,135,0.0,0.0,97,0.00,,,0.00,fowsr,2013-08-21 12:05:00,
2013-08-21 08:10:00,73.2,72.5,29.75,SE,135,0.0,0.0,97,0.00,,,0.00,fowsr,2013-08-21 12:10:00,
2013-08-21 08:15:00,73.4,73.2,29.75,SE,135,0.0,0.0,99,0.00,,,0.00,fowsr,2013-08-21 12:15:00,
2013-08-21 08:20:00,73.6,73.3,29.76,SE,135,0.0,0.0,99,0.00,,,0.00,fowsr,2013-08-21 12:20:00,
2013-08-21 08:25:00,73.6,73.3,29.76,SE,135,0.0,0.0,99,0.00,,,0.00,fowsr,2013-08-21 12:25:00,
2013-08-21 08:30:00,73.8,73.5,29.76,SE,135,0.0,0.0,99,0.00,,,0.00,fowsr,2013-08-21 12:30:00,
2013-08-21 08:35:00,73.8,73.5,29.76,SE,135,0.0,0.0,99,0.00,,,0.00,fowsr,2013-08-21 12:35:00,
2013-08-21 08:40:00,73.9,73.7,29.76,SE,135,0.0,0.0,99,0.00,,,0.00,fowsr,2013-08-21 12:40:00,
2013-08-21 08:45:00,73.9,73.7,29.76,SE,135,0.0,0.0,99,0.00,,,0.00,fowsr,2013-08-21 12:45:00,
2013-08-21 08:50:00,74.1,73.9,29.76,SE,135,0.0,0.0,99,0.00,,,0.00,fowsr,2013-08-21 12:50:00,
2013-08-21 08:55:00,74.1,73.9,29.76,SE,135,0.0,0.0,99,0.00,,,0.00,fowsr,2013-08-21 12:55:00,
2013-08-21 09:00:00,74.3,74.1,29.76,SE,135,0.0,0.0,99,0.00,,,0.00,fowsr,2013-08-21 13:00:00,
2013-08-21 09:05:00,74.5,74.2,29.76,SE,135,0.0,0.0,99,0.00,,,0.00,fowsr,2013-08-21 13:05:00,
2013-08-21 09:10:00,74.8,74.6,29.76,SE,135,0.0,0.0,99,0.00,,,0.00,fowsr,2013-08-21 13:10:00,
2013-08-21 09:15:00,75.0,74.8,29.76,SE,135,0.0,0.0,99,0.00,,,0.00,fowsr,2013-08-21 13:15:00,
2013-08-21 09:20:00,75.6,74.8,29.76,SE,135,0.0,0.0,97,0.00,,,0.00,fowsr,2013-08-21 13:20:00,
2013-08-21 09:25:00,76.1,75.4,29.76,SE,135,0.0,0.0,97,0.00,,,0.00,fowsr,2013-08-21 13:25:00,
2013-08-21 09:30:00,76.3,75.6,29.75,SE,135,0.0,0.0,97,0.00,,,0.00,fowsr,2013-08-21 13:30:00,
2013-08-21 09:35:00,77.0,75.8,29.75,SE,135,0.0,0.0,95,0.00,,,0.00,fowsr,2013-08-21 13:35:00,
2013-08-21 09:40:00,77.0,75.8,29.76,SE,135,0.0,0.0,95,0.00,,,0.00,fowsr,2013-08-21 13:40:00,
2013-08-21 09:45:00,78.6,76.9,29.76,SE,135,1.6,3.8,93,0.00,,,0.00,fowsr,2013-08-21 13:45:00,
2013-08-21 09:50:00,78.6,76.9,29.77,SE,135,1.6,3.8,93,0.00,,,0.00,fowsr,2013-08-21 13:50:00,
2013-08-21 09:55:00,-999.9,-99.9,29.77,North,3015,916.0,916.0,255,0.00,,,0.00,fowsr,2013-08-21 13:55:00,
2013-08-21 10:00:00,-999.9,-99.9,29.77,North,3015,916.0,916.0,255,0.00,,,0.00,fowsr,2013-08-21 14:00:00,
2013-08-21 10:05:00,79.0,76.2,29.77,SE,135,0.0,0.7,89,0.00,,,0.00,fowsr,2013-08-21 14:05:00,
2013-08-21 10:10:00,79.0,76.2,29.76,SE,135,0.0,0.0,89,0.00,,,0.00,fowsr,2013-08-21 14:10:00,
2013-08-21 10:15:00,79.0,76.2,29.77,SE,135,0.0,0.0,89,0.00,,,0.00,fowsr,2013-08-21 14:15:00,
2013-08-21 10:20:00,79.0,75.9,29.77,SE,135,0.7,1.6,88,0.00,,,0.00,fowsr,2013-08-21 14:20:00,
2013-08-21 10:25:00,79.3,76.0,29.77,SE,135,0.7,1.6,87,0.00,,,0.00,fowsr,2013-08-21 14:25:00,
2013-08-21 10:30:00,79.3,76.0,29.77,SE,135,0.0,0.7,87,0.00,,,0.00,fowsr,2013-08-21 14:30:00,
2013-08-21 10:35:00,79.0,75.6,29.77,SE,135,0.0,0.0,87,0.00,,,0.00,fowsr,2013-08-21 14:35:00,
2013-08-21 10:40:00,79.0,75.6,29.77,SE,135,0.0,0.0,87,0.00,,,0.00,fowsr,2013-08-21 14:40:00,
2013-08-21 10:45:00,79.0,75.6,29.77,SE,135,0.0,0.7,87,0.00,,,0.00,fowsr,2013-08-21 14:45:00,
2013-08-21 10:50:00,79.3,76.0,29.77,SE,135,0.7,2.2,87,0.00,,,0.00,fowsr,2013-08-21 14:50:00,
2013-08-21 10:55:00,79.5,76.1,29.77,SSE,157,0.0,0.0,87,0.00,,,0.00,fowsr,2013-08-21 14:55:00,
2013-08-21 11:00:00,79.5,76.1,29.77,SE,135,0.0,0.0,87,0.00,,,0.00,fowsr,2013-08-21 15:00:00,
2013-08-21 11:05:00,80.4,76.7,29.77,SE,135,0.7,1.6,86,0.00,,,0.00,fowsr,2013-08-21 15:05:00,
2013-08-21 11:10:00,80.6,76.1,29.77,SE,135,0.0,1.6,83,0.00,,,0.00,fowsr,2013-08-21 15:10:00,
2013-08-21 11:15:00,80.4,76.2,29.77,SE,135,0.7,1.6,84,0.00,,,0.00,fowsr,2013-08-21 15:15:00,
2013-08-21 11:20:00,80.6,76.1,29.77,SE,135,1.6,3.8,83,0.00,,,0.00,fowsr,2013-08-21 15:20:00,
2013-08-21 11:25:00,80.6,76.1,29.77,SE,135,1.6,3.8,83,0.00,,,0.00,fowsr,2013-08-21 15:25:00,
2013-08-21 11:30:00,-999.9,-99.9,29.77,North,3015,916.0,916.0,255,0.00,,,0.00,fowsr,2013-08-21 15:30:00,
2013-08-21 11:35:00,-999.9,-99.9,29.77,North,3015,916.0,916.0,255,0.00,,,0.00,fowsr,2013-08-21 15:35:00,
2013-08-21 11:40:00,-999.9,-99.9,29.77,North,3015,916.0,916.0,255,0.00,,,0.00,fowsr,2013-08-21 15:40:00,
2013-08-21 11:45:00,-999.9,-99.9,29.77,North,3015,916.0,916.0,255,0.00,,,0.00,fowsr,2013-08-21 15:45:00,
2013-08-21 11:50:00,-999.9,-99.9,29.77,North,3015,916.0,916.0,255,0.00,,,0.00,fowsr,2013-08-21 15:50:00,
2013-08-21 11:55:00,-999.9,-99.9,29.76,North,3015,916.0,916.0,255,0.00,,,0.00,fowsr,2013-08-21 15:55:00,
2013-08-21 12:00:00,-999.9,-99.9,29.76,North,3015,916.0,916.0,255,0.00,,,0.00,fowsr,2013-08-21 16:00:00,
2013-08-21 12:05:00,-999.9,-99.9,29.76,North,3015,916.0,916.0,255,0.00,,,0.00,fowsr,2013-08-21 16:05:00,
2013-08-21 12:10:00,-999.9,-99.9,29.76,North,3015,916.0,916.0,255,0.00,,,0.00,fowsr,2013-08-21 16:10:00,
2013-08-21 12:15:00,-999.9,-99.9,29.75,North,3015,916.0,916.0,255,0.00,,,0.00,fowsr,2013-08-21 16:15:00,
2013-08-21 12:20:00,-999.9,-99.9,29.75,North,3015,916.0,916.0,255,0.00,,,0.00,fowsr,2013-08-21 16:20:00,
2013-08-21 12:25:00,-999.9,-99.9,29.75,North,3015,916.0,916.0,255,0.00,,,0.00,fowsr,2013-08-21 16:25:00,
2013-08-21 12:30:00,-999.9,-99.9,29.75,North,3015,916.0,916.0,255,0.00,,,0.00,fowsr,2013-08-21 16:30:00,
2013-08-21 12:35:00,-999.9,-99.9,29.75,North,3015,916.0,916.0,255,0.00,,,0.00,fowsr,2013-08-21 16:35:00,
2013-08-21 12:40:00,-999.9,-99.9,29.75,North,3015,916.0,916.0,255,0.00,,,0.00,fowsr,2013-08-21 16:40:00,
2013-08-21 12:45:00,-999.9,-99.9,29.75,North,3015,916.0,916.0,255,0.00,,,0.00,fowsr,2013-08-21 16:45:00,
2013-08-21 12:50:00,-999.9,-99.9,29.75,North,3015,916.0,916.0,255,0.00,,,0.00,fowsr,2013-08-21 16:50:00,
2013-08-21 12:55:00,-999.9,-99.9,29.75,North,3015,916.0,916.0,255,0.00,,,0.00,fowsr,2013-08-21 16:55:00,
2013-08-21 13:00:00,-999.9,-99.9,29.75,North,3015,916.0,916.0,255,0.00,,,0.00,fowsr,2013-08-21 17:00:00,
2013-08-21 13:05:00,-999.9,-99.9,29.74,North,3015,916.0,916.0,255,0.00,,,0.00,fowsr,2013-08-21 17:05:00,
2013-08-21 13:10:00,-999.9,-99.9,29.74,North,3015,916.0,916.0,255,0.00,,,0.00,fowsr,2013-08-21 17:10:00,
2013-08-21 13:15:00,84.7,77.3,29.74,SE,135,0.0,2.2,74,0.00,,,0.00,fowsr,2013-08-21 17:15:00,
2013-08-21 13:20:00,84.9,77.5,29.73,SE,135,1.6,3.1,74,0.00,,,0.00,fowsr,2013-08-21 17:20:00,
2013-08-21 13:25:00,84.9,77.5,29.73,SE,135,1.6,3.1,74,0.00,,,0.00,fowsr,2013-08-21 17:25:00,
2013-08-21 13:30:00,-999.9,-99.9,29.73,North,3015,916.0,916.0,255,0.00,,,0.00,fowsr,2013-08-21 17:30:00,
2013-08-21 13:35:00,85.6,76.8,29.73,South,180,1.6,3.1,70,0.00,,,0.00,fowsr,2013-08-21 17:35:00,
2013-08-21 13:40:00,85.6,76.8,29.73,South,180,1.6,3.1,70,0.00,,,0.00,fowsr,2013-08-21 17:40:00,
2013-08-21 13:45:00,85.8,77.3,29.72,SW,225,0.0,0.0,71,0.00,,,0.00,fowsr,2013-08-21 17:45:00,
2013-08-21 13:50:00,85.8,77.3,29.72,SW,225,0.0,0.0,71,0.00,,,0.00,fowsr,2013-08-21 17:50:00,
2013-08-21 13:55:00,-999.9,-99.9,29.71,North,3105,916.0,916.0,255,0.00,,,0.00,fowsr,2013-08-21 17:55:00,
2013-08-21 14:00:00,-999.9,-99.9,29.72,North,3105,916.0,916.0,255,0.00,,,0.00,fowsr,2013-08-21 18:00:00,
2013-08-21 14:05:00,-999.9,-99.9,29.71,North,3105,916.0,916.0,255,0.00,,,0.00,fowsr,2013-08-21 18:05:00,
2013-08-21 14:10:00,-999.9,-99.9,29.71,North,3105,916.0,916.0,255,0.00,,,0.00,fowsr,2013-08-21 18:10:00,
2013-08-21 14:15:00,-999.9,-99.9,29.70,North,3105,916.0,916.0,255,0.00,,,0.00,fowsr,2013-08-21 18:15:00,
2013-08-21 14:20:00,87.4,77.4,29.70,South,180,0.0,1.6,67,0.00,,,0.00,fowsr,2013-08-21 18:20:00,
2013-08-21 14:25:00,87.8,77.0,29.70,SE,135,4.5,5.4,65,0.00,,,0.00,fowsr,2013-08-21 18:25:00,
2013-08-21 14:30:00,87.8,77.0,29.70,SE,135,4.5,5.4,65,0.00,,,0.00,fowsr,2013-08-21 18:30:00,
2013-08-21 14:35:00,-999.9,-99.9,29.69,North,3015,916.0,916.0,255,0.00,,,0.00,fowsr,2013-08-21 18:35:00,
2013-08-21 14:40:00,87.3,77.3,29.69,West,270,0.7,1.6,67,0.00,,,0.00,fowsr,2013-08-21 18:40:00,
2013-08-21 14:45:00,87.3,77.3,29.68,West,270,0.7,1.6,67,0.00,,,0.00,fowsr,2013-08-21 18:45:00,
2013-08-21 14:50:00,-999.9,-99.9,29.69,North,3150,916.0,916.0,255,0.00,,,0.00,fowsr,2013-08-21 18:50:00,
2013-08-21 14:55:00,87.4,76.3,29.68,SE,135,0.0,3.1,64,0.00,,,0.00,fowsr,2013-08-21 18:55:00,
2013-08-21 15:00:00,87.4,76.3,29.68,SE,135,0.0,3.1,64,0.00,,,0.00,fowsr,2013-08-21 19:00:00,
2013-08-21 15:05:00,87.4,76.3,29.68,SE,135,0.0,3.1,64,0.00,,,0.00,fowsr,2013-08-21 19:05:00,
2013-08-21 15:10:00,-999.9,-99.9,29.68,North,3015,916.0,916.0,255,0.00,,,0.00,fowsr,2013-08-21 19:10:00,
2013-08-21 15:15:00,-999.9,-99.9,29.69,North,3015,916.0,916.0,255,0.00,,,0.00,fowsr,2013-08-21 19:15:00,
2013-08-21 15:20:00,86.9,76.6,29.68,SE,135,2.2,3.8,66,0.00,,,0.00,fowsr,2013-08-21 19:20:00,
2013-08-21 15:25:00,86.9,76.6,29.67,SE,135,2.2,3.8,66,0.00,,,0.00,fowsr,2013-08-21 19:25:00,
2013-08-21 15:30:00,-999.9,-99.9,29.67,North,3015,916.0,916.0,255,0.00,,,0.00,fowsr,2013-08-21 19:30:00,
2013-08-21 15:35:00,88.2,77.0,29.67,SE,135,0.7,4.5,64,0.00,,,0.00,fowsr,2013-08-21 19:35:00,
2013-08-21 15:40:00,88.2,76.6,29.67,West,270,1.6,3.1,63,0.00,,,0.00,fowsr,2013-08-21 19:40:00,
2013-08-21 15:45:00,88.2,76.6,29.68,West,270,1.6,3.1,63,0.00,,,0.00,fowsr,2013-08-21 19:45:00,
2013-08-21 15:50:00,-999.9,-99.9,29.68,North,3150,916.0,916.0,255,0.00,,,0.00,fowsr,2013-08-21 19:50:00,
2013-08-21 15:55:00,87.8,76.3,29.68,SE,135,0.0,0.7,63,0.00,,,0.00,fowsr,2013-08-21 19:55:00,
2013-08-21 16:00:00,87.8,76.3,29.67,SE,135,0.0,0.7,63,0.00,,,0.00,fowsr,2013-08-21 20:00:00,
2013-08-21 16:05:00,87.8,76.3,29.68,SE,135,0.0,0.7,63,0.00,,,0.00,fowsr,2013-08-21 20:05:00,
2013-08-21 16:10:00,87.1,76.7,29.68,SE,135,0.7,1.6,66,0.00,,,0.00,fowsr,2013-08-21 20:10:00,
2013-08-21 16:15:00,87.1,76.7,29.68,SE,135,0.7,1.6,66,0.00,,,0.00,fowsr,2013-08-21 20:15:00,
2013-08-21 16:20:00,86.2,77.0,29.69,SW,225,2.2,3.8,69,0.00,,,0.00,fowsr,2013-08-21 20:20:00,
2013-08-21 16:25:00,84.0,73.9,29.68,West,270,0.7,2.2,66,0.00,,,0.00,fowsr,2013-08-21 20:25:00,
2013-08-21 16:30:00,82.2,72.9,29.69,West,270,1.6,2.2,68,0.00,,,0.00,fowsr,2013-08-21 20:30:00,
2013-08-21 16:35:00,80.4,71.9,29.69,West,270,0.7,2.2,70,0.01,,,0.01,fowsr,2013-08-21 20:35:00,
2013-08-21 16:40:00,78.1,71.6,29.69,NE,45,0.0,0.7,76,0.02,,,0.02,fowsr,2013-08-21 20:40:00,
2013-08-21 16:45:00,76.5,71.5,29.69,NE,45,0.0,0.7,81,0.04,,,0.04,fowsr,2013-08-21 20:45:00,
2013-08-21 16:50:00,75.6,71.2,29.71,SE,135,1.6,2.2,83,0.04,,,0.04,fowsr,2013-08-21 20:50:00,
2013-08-21 16:55:00,74.7,70.8,29.70,East,90,0.0,0.7,85,0.04,,,0.04,fowsr,2013-08-21 20:55:00,
2013-08-21 17:00:00,74.5,71.2,29.70,East,90,0.0,0.7,87,0.04,,,0.04,fowsr,2013-08-21 21:00:00,
2013-08-21 17:05:00,74.3,71.3,29.69,SW,225,0.0,0.0,88,0.04,,,0.04,fowsr,2013-08-21 21:05:00,
2013-08-21 17:10:00,74.3,71.8,29.70,SW,225,0.0,0.0,90,0.04,,,0.04,fowsr,2013-08-21 21:10:00,
2013-08-21 17:15:00,74.3,72.3,29.70,SW,225,0.0,0.0,92,0.04,,,0.04,fowsr,2013-08-21 21:15:00,
2013-08-21 17:20:00,74.1,72.2,29.69,SW,225,0.0,0.0,92,0.04,,,0.04,fowsr,2013-08-21 21:20:00,
2013-08-21 17:25:00,74.1,72.2,29.70,SE,135,0.0,0.0,92,0.04,,,0.04,fowsr,2013-08-21 21:25:00,
2013-08-21 17:30:00,74.1,72.4,29.70,SE,135,0.0,0.0,93,0.04,,,0.04,fowsr,2013-08-21 21:30:00,
2013-08-21 17:35:00,74.1,72.4,29.69,SE,135,0.0,0.0,93,0.04,,,0.04,fowsr,2013-08-21 21:35:00,
2013-08-21 17:40:00,74.1,72.7,29.69,SE,135,0.0,0.0,94,0.01,,,0.04,fowsr,2013-08-21 21:40:00,
2013-08-21 17:45:00,74.1,72.7,29.69,SE,135,0.0,0.0,94,0.01,,,0.04,fowsr,2013-08-21 21:45:00,
2013-08-21 17:50:00,73.9,72.5,29.71,SE,135,0.0,0.7,94,0.00,,,0.04,fowsr,2013-08-21 21:50:00,
2013-08-21 17:55:00,74.1,72.7,29.70,SE,135,0.0,0.0,94,0.00,,,0.04,fowsr,2013-08-21 21:55:00,
2013-08-21 18:00:00,74.3,73.1,29.69,SE,135,0.0,0.0,95,0.00,,,0.04,fowsr,2013-08-21 22:00:00,
2013-08-21 18:05:00,74.5,73.3,29.69,SE,135,0.0,0.0,95,0.00,,,0.04,fowsr,2013-08-21 22:05:00,
2013-08-21 18:10:00,74.5,73.3,29.69,SE,135,0.0,0.0,95,0.00,,,0.04,fowsr,2013-08-21 22:10:00,
2013-08-21 18:15:00,74.5,73.3,29.68,East,90,0.0,0.0,95,0.00,,,0.04,fowsr,2013-08-21 22:15:00,
2013-08-21 18:20:00,74.5,73.3,29.68,SE,135,0.0,0.0,95,0.00,,,0.04,fowsr,2013-08-21 22:20:00,
2013-08-21 18:25:00,74.5,73.0,29.68,SE,135,0.0,0.0,94,0.00,,,0.04,fowsr,2013-08-21 22:25:00,
2013-08-21 18:30:00,74.5,73.0,29.68,SE,135,0.0,0.0,94,0.00,,,0.04,fowsr,2013-08-21 22:30:00,
2013-08-21 18:35:00,74.1,72.7,29.68,SE,135,0.0,0.0,94,0.00,,,0.04,fowsr,2013-08-21 22:35:00,
2013-08-21 18:40:00,74.1,72.7,29.68,SE,135,0.0,0.0,94,0.00,,,0.04,fowsr,2013-08-21 22:40:00,
2013-08-21 18:45:00,73.9,72.5,29.68,SE,135,0.0,0.0,94,0.00,,,0.04,fowsr,2013-08-21 22:45:00,
2013-08-21 18:50:00,73.9,72.5,29.67,SE,135,0.0,0.0,94,0.00,,,0.04,fowsr,2013-08-21 22:50:00,
2013-08-21 18:55:00,73.9,72.5,29.67,SE,135,0.0,0.0,94,0.00,,,0.04,fowsr,2013-08-21 22:55:00,
2013-08-21 19:00:00,73.9,72.5,29.67,SE,135,0.0,0.0,94,0.00,,,0.04,fowsr,2013-08-21 23:00:00,
2013-08-21 19:05:00,73.8,72.3,29.66,SE,135,0.0,0.0,94,0.00,,,0.04,fowsr,2013-08-21 23:05:00,
2013-08-21 19:10:00,73.8,72.6,29.66,SE,135,0.0,0.0,95,0.00,,,0.04,fowsr,2013-08-21 23:10:00,
2013-08-21 19:15:00,73.8,72.6,29.66,SE,135,0.0,0.0,95,0.00,,,0.04,fowsr,2013-08-21 23:15:00,
2013-08-21 19:20:00,73.6,72.4,29.66,SE,135,0.0,0.0,95,0.00,,,0.04,fowsr,2013-08-21 23:20:00,
2013-08-21 19:25:00,73.6,72.4,29.66,SE,135,0.0,0.0,95,0.00,,,0.04,fowsr,2013-08-21 23:25:00,
2013-08-21 19:30:00,73.6,72.4,29.66,SE,135,0.0,0.0,95,0.00,,,0.04,fowsr,2013-08-21 23:30:00,
2013-08-21 19:35:00,73.6,72.4,29.67,SE,135,0.0,0.0,95,0.00,,,0.04,fowsr,2013-08-21 23:35:00,
2013-08-21 19:40:00,73.6,72.4,29.67,SE,135,0.0,0.0,95,0.00,,,0.04,fowsr,2013-08-21 23:40:00,
2013-08-21 19:45:00,73.6,72.4,29.67,SE,135,0.0,0.0,95,0.00,,,0.04,fowsr,2013-08-21 23:45:00,
2013-08-21 19:50:00,73.6,72.4,29.67,SE,135,0.0,0.0,95,0.00,,,0.04,fowsr,2013-08-21 23:50:00,
2013-08-21 19:55:00,73.8,72.8,29.68,SE,135,0.0,0.0,96,0.00,,,0.04,fowsr,2013-08-21 23:55:00,
2013-08-21 20:00:00,73.8,72.8,29.68,SE,135,0.0,0.0,96,0.00,,,0.04,fowsr,2013-08-22 00:00:00,
2013-08-21 20:05:00,73.8,72.8,29.67,SE,135,0.0,1.6,96,0.00,,,0.04,fowsr,2013-08-22 00:05:00,
2013-08-21 20:10:00,73.8,72.8,29.67,SE,135,0.0,0.7,96,0.00,,,0.04,fowsr,2013-08-22 00:10:00,
2013-08-21 20:15:00,73.8,72.8,29.66,SE,135,0.7,1.6,96,0.00,,,0.04,fowsr,2013-08-22 00:15:00,
2013-08-21 20:20:00,73.8,72.8,29.66,SE,135,1.6,2.2,96,0.00,,,0.04,fowsr,2013-08-22 00:20:00,
2013-08-21 20:25:00,73.6,72.6,29.66,SE,135,0.0,0.7,96,0.00,,,0.04,fowsr,2013-08-22 00:25:00,
2013-08-21 20:30:00,73.6,72.6,29.66,East,90,0.0,0.7,96,0.00,,,0.04,fowsr,2013-08-22 00:30:00,
2013-08-21 20:35:00,73.4,72.4,29.66,SE,135,0.0,0.0,96,0.00,,,0.04,fowsr,2013-08-22 00:35:00,
2013-08-21 20:40:00,73.2,72.0,29.66,SE,135,0.0,0.0,95,0.00,,,0.04,fowsr,2013-08-22 00:40:00,
2013-08-21 20:45:00,73.2,72.0,29.67,SE,135,0.0,0.0,95,0.00,,,0.04,fowsr,2013-08-22 00:45:00,
2013-08-21 20:50:00,73.0,71.8,29.67,SE,135,0.0,0.0,95,0.00,,,0.04,fowsr,2013-08-22 00:50:00,
2013-08-21 20:55:00,73.0,71.8,29.68,SE,135,0.0,0.0,95,0.00,,,0.04,fowsr,2013-08-22 00:55:00,
2013-08-21 21:00:00,72.9,71.7,29.69,SE,135,0.0,0.0,95,0.00,,,0.04,fowsr,2013-08-22 01:00:00,
2013-08-21 21:05:00,72.9,71.7,29.68,SE,135,0.0,0.0,95,0.00,,,0.04,fowsr,2013-08-22 01:05:00,
2013-08-21 21:10:00,72.9,71.9,29.69,SE,135,0.0,0.0,96,0.00,,,0.04,fowsr,2013-08-22 01:10:00,
2013-08-21 21:15:00,72.7,71.7,29.69,SE,135,0.0,0.0,96,0.00,,,0.04,fowsr,2013-08-22 01:15:00,
2013-08-21 21:20:00,72.7,71.7,29.69,SE,135,0.0,0.0,96,0.00,,,0.04,fowsr,2013-08-22 01:20:00,
2013-08-21 21:25:00,72.7,71.7,29.69,SE,135,0.0,0.7,96,0.00,,,0.04,fowsr,2013-08-22 01:25:00,
2013-08-21 21:30:00,72.5,71.5,29.69,NE,45,0.0,0.7,96,0.00,,,0.04,fowsr,2013-08-22 01:30:00,
2013-08-21 21:35:00,72.5,71.5,29.69,NE,45,0.0,0.0,96,0.00,,,0.04,fowsr,2013-08-22 01:35:00,
2013-08-21 21:40:00,72.5,71.5,29.69,NE,45,0.0,0.0,96,0.00,,,0.04,fowsr,2013-08-22 01:40:00,
2013-08-21 21:45:00,72.3,71.4,29.70,NE,45,0.0,0.0,96,0.00,,,0.04,fowsr,2013-08-22 01:45:00,
2013-08-21 21:50:00,72.3,71.4,29.70,SE,135,0.0,1.6,96,0.00,,,0.04,fowsr,2013-08-22 01:50:00,
2013-08-21 21:55:00,72.1,71.2,29.70,SE,135,0.0,0.0,96,0.00,,,0.04,fowsr,2013-08-22 01:55:00,
2013-08-21 22:00:00,72.1,71.2,29.70,SE,135,0.0,0.0,96,0.00,,,0.04,fowsr,2013-08-22 02:00:00,
2013-08-21 22:05:00,72.1,71.2,29.71,SE,135,0.0,0.0,96,0.00,,,0.04,fowsr,2013-08-22 02:05:00,
2013-08-21 22:10:00,72.0,71.0,29.70,SE,135,0.0,0.0,96,0.00,,,0.04,fowsr,2013-08-22 02:10:00,
2013-08-21 22:15:00,72.0,71.0,29.70,SE,135,0.0,0.0,96,0.00,,,0.04,fowsr,2013-08-22 02:15:00,
2013-08-21 22:20:00,-999.9,-99.9,29.70,North,3015,916.0,916.0,255,0.00,,,0.04,fowsr,2013-08-22 02:20:00,
2013-08-21 22:25:00,-999.9,-99.9,29.70,North,3015,916.0,916.0,255,0.00,,,0.04,fowsr,2013-08-22 02:25:00,
2013-08-21 22:30:00,-999.9,-99.9,29.70,North,3015,916.0,916.0,255,0.00,,,0.04,fowsr,2013-08-22 02:30:00,
2013-08-21 22:35:00,-999.9,-99.9,29.70,North,3015,916.0,916.0,255,0.00,,,0.04,fowsr,2013-08-22 02:35:00,
2013-08-21 22:40:00,71.4,70.7,29.70,SE,135,0.0,0.0,97,0.00,,,0.04,fowsr,2013-08-22 02:40:00,
2013-08-21 22:45:00,71.4,70.7,29.70,SE,135,0.0,0.0,97,0.00,,,0.04,fowsr,2013-08-22 02:45:00,
2013-08-21 22:50:00,71.4,70.7,29.70,SE,135,0.0,0.0,97,0.00,,,0.04,fowsr,2013-08-22 02:50:00,
2013-08-21 22:55:00,71.2,70.5,29.71,SE,135,0.0,0.0,97,0.00,,,0.04,fowsr,2013-08-22 02:55:00,
2013-08-21 23:00:00,71.2,70.5,29.70,SE,135,0.0,0.0,97,0.00,,,0.04,fowsr,2013-08-22 03:00:00,
2013-08-21 23:05:00,71.2,70.5,29.70,SE,135,0.0,0.0,97,0.00,,,0.04,fowsr,2013-08-22 03:05:00,
2013-08-21 23:10:00,71.2,70.5,29.70,SE,135,0.0,0.0,97,0.00,,,0.04,fowsr,2013-08-22 03:10:00,
2013-08-21 23:15:00,71.1,70.6,29.71,SE,135,0.0,0.0,98,0.00,,,0.04,fowsr,2013-08-22 03:15:00,
2013-08-21 23:20:00,70.9,70.4,29.71,SE,135,0.0,0.0,98,0.00,,,0.04,fowsr,2013-08-22 03:20:00,
2013-08-21 23:25:00,70.9,70.4,29.70,SE,135,0.0,0.0,98,0.00,,,0.04,fowsr,2013-08-22 03:25:00,
2013-08-21 23:30:00,70.9,70.4,29.70,SE,135,0.0,0.0,98,0.00,,,0.04,fowsr,2013-08-22 03:30:00,
2013-08-21 23:35:00,70.9,70.4,29.71,SE,135,0.0,0.0,98,0.00,,,0.04,fowsr,2013-08-22 03:35:00,
2013-08-21 23:40:00,71.1,70.6,29.71,SE,135,0.0,0.7,98,0.00,,,0.04,fowsr,2013-08-22 03:40:00,
2013-08-21 23:45:00,71.1,70.6,29.71,SE,135,0.0,0.0,98,0.00,,,0.04,fowsr,2013-08-22 03:45:00,
2013-08-21 23:50:00,71.1,70.6,29.70,SE,135,0.0,0.0,98,0.00,,,0.04,fowsr,2013-08-22 03:50:00,
2013-08-21 23:55:00,71.2,70.8,29.70,SE,135,0.0,0.0,98,0.00,,,0.04,fowsr,2013-08-22 03:55:00,